Location: Rounton
(54.4000°N, 1.3500°W)
Time: 14:24:05
(UTC+00:00)

Transit 4A - Pass Details

Date: 30 November 2021
Orbit: 864 x 981 km, 66.8° (Epoch: 18 January)

Event Time Altitude Azimuth Distance (km) Brightness Sun altitude
Rises 02:29:34 0° 311° (NW) 3,561 - -46.2°
Reaches altitude 10° 02:32:18 10° 320° (NW) 2,636 - -45.8°
Maximum altitude 02:37:56 36° 26° (NNE) 1,459 - -45.1°
Exits shadow 02:41:52 19° 82° (E) 2,136 10.2 -44.6°
Drops below altitude 10° 02:43:42 10° 92° (E) 2,699 10.8 -44.4°
Sets 02:46:31 0° 101° (E) 3,657 11.5 -44.0°
